Barcelona, Spain

8:19 PM CET en Febrero 19, 2019 (GMT +0100)
El Prat

Tiempo Historia de LEBL - Febrero, 2019

Change the Weather History Date:

Lunes, Febrero 11, 2019

  Actual Average Record
Temperature  
Temperatura media 55 ° F -  
Temperatura máxima 62 ° F 56 ° F 62 ° F (2000)
Temperatura mínima 48 ° F 42 ° F 35 ° F (1999)
Degree Days  
Grados día de calefacción 10    
Growing Degree Days 5 (Base 50)    
Moisture  
Punto de rocío 41 ° F    
Average Humidity 63    
Maximum Humidity 88    
Minimum Humidity 39    
Precipitación  
Precipitación 0.00 pul 0.05 pul - ()
Presión al nivel del mar  
Presión al nivel del mar 30.26 pul    
Viento  
Velocidad del viento 7 mph ()    
Velocidad máxima del viento 13 mph    
Max Gust Speed 24 mph    
Visibilidad 9.1 Millas    
Eventos      
Averages and records for this station are not official NWS values.
T = Trace of Precipitation, MM = Missing Value Source: Averaged Metar Reports

Daily Weather History Graph

Daily Weather History Graph

Search for Another Location

Airport or City:

Astronomía

Feb. 11, 2019 Salida Puesta
Hora real 7:52 AM CET 6:20 PM CET
Crepúsculo civil 7:23 AM CET 6:48 PM CET
Crepúsculo náutico 6:51 AM CET 7:21 PM CET
Crepúsculo astronómico 6:19 AM CET 7:53 PM CET
Luna 11:14 AM CET (2/11) Sin puesta de luna
Horas de luz 11h 25m
Horas de luz
10h 28m
Creciente, 35% of the Moon is Illuminated
Feb 11
Creciente
Feb 12
Cuarto creciente
Feb 19
Luna llena
Feb 26
Cuarto menguante
Mar 6
Nueva

Hourly Weather History & Observations

Hora (CET) Temp. Punto de rocío Humedad Presión Visibilidad Wind Dir Velocidad del viento Velocidad de ráfagas Precip Eventos Condiciones
12:00 AM 55 ° F 50 ° F 78% 30.11 pul 10 mi Este 8.1 mph - -  
12:00 AM 55.4 ° F 50.0 ° F 82% 30.09 pul 6.2 mi ENE 10.4 mph - N/A   Parcialmente nublado
12:30 AM 53.6 ° F 48.2 ° F 82% 30.09 pul 6.2 mi NE 9.2 mph - N/A   Parcialmente nublado
1:00 AM 53 ° F 49 ° F 80% 30.12 pul 11 mi Oeste 2.3 mph - -   Nubes dispersas
1:00 AM 51.8 ° F 48.2 ° F 88% 30.09 pul 6.2 mi Variable 2.3 mph - N/A   Parcialmente nublado
1:30 AM 50.0 ° F 46.4 ° F 87% 30.12 pul 6.2 mi Sin viento Sin viento - N/A   Parcialmente nublado
2:00 AM 51 ° F 47 ° F 82% 30.15 pul 11 mi ENE 5.8 mph - -  
2:00 AM 51.8 ° F 46.4 ° F 82% 30.12 pul 6.2 mi Norte 3.5 mph - N/A   Parcialmente nublado
2:30 AM 51.8 ° F 41.0 ° F 67% 30.12 pul 6.2 mi Norte 5.8 mph - N/A   Parcialmente nublado
3:00 AM 51.8 ° F 41.0 ° F 67% 30.12 pul 6.2 mi Norte 4.6 mph - N/A   Parcialmente nublado
3:30 AM 48.2 ° F 39.2 ° F 71% 30.15 pul 6.2 mi NNO 9.2 mph - N/A   Parcialmente nublado
4:00 AM 48 ° F 40 ° F 67% 30.16 pul 16 mi NNO 8.1 mph - -   Parcialmente nublado
4:00 AM 48.2 ° F 39.2 ° F 71% 30.15 pul 6.2 mi NO 11.5 mph - N/A   Nubes dispersas
4:30 AM 50.0 ° F 37.4 ° F 62% 30.15 pul 6.2 mi NO 4.6 mph - N/A   Nubes dispersas
5:00 AM 51 ° F 39 ° F 54% 30.17 pul 19 mi NNE 3.5 mph - -  
5:00 AM 50.0 ° F 37.4 ° F 62% 30.15 pul 6.2 mi Norte 5.8 mph - N/A   Muy nublado
5:30 AM 50.0 ° F 37.4 ° F 62% 30.15 pul 6.2 mi NO 10.4 mph - N/A   Nubes dispersas
6:00 AM 51 ° F 38 ° F 50% 30.18 pul 19 mi Norte 11.5 mph - -  
6:00 AM 50.0 ° F 35.6 ° F 58% 30.18 pul 6.2 mi NNO 12.7 mph - N/A   Nubes dispersas
6:30 AM 50.0 ° F 35.6 ° F 58% 30.18 pul 6.2 mi NNO 12.7 mph - N/A   Nubes dispersas
7:00 AM 50.0 ° F 35.6 ° F 58% 30.18 pul 6.2 mi NNO 12.7 mph - N/A   Nubes dispersas
7:30 AM 48.2 ° F 35.6 ° F 62% 30.21 pul 6.2 mi NNO 12.7 mph - N/A   Nubes dispersas
8:00 AM 49 ° F 38 ° F 56% 30.22 pul 19 mi Norte 11.5 mph - -  
8:00 AM 48.2 ° F 37.4 ° F 66% 30.21 pul 6.2 mi NNO 11.5 mph - N/A   Parcialmente nublado
8:30 AM 48.2 ° F 37.4 ° F 66% 30.21 pul 6.2 mi NNO 10.4 mph - N/A   Parcialmente nublado
9:00 AM 50.0 ° F 35.6 ° F 58% 30.24 pul 6.2 mi NNO 12.7 mph 24.2 mph N/A   Parcialmente nublado
9:30 AM 50.0 ° F 35.6 ° F 58% 30.27 pul 6.2 mi NNO 10.4 mph - N/A   Parcialmente nublado
10:00 AM 52 ° F 38 ° F 47% 30.29 pul 19 mi Norte 10.4 mph - -   Parcialmente nublado
10:00 AM 51.8 ° F 37.4 ° F 58% 30.27 pul 6.2 mi NO 12.7 mph - N/A   Nubes dispersas
10:30 AM 53.6 ° F 37.4 ° F 54% 30.27 pul 6.2 mi NNO 11.5 mph - N/A   Parcialmente nublado
11:00 AM 55 ° F 38 ° F 40% 30.30 pul 14 mi Norte 12.7 mph - -  
11:00 AM 53.6 ° F 35.6 ° F 51% 30.27 pul 6.2 mi NNO 10.4 mph 24.2 mph N/A   Parcialmente nublado
11:30 AM 55.4 ° F 37.4 ° F 51% 30.30 pul 6.2 mi NNO 10.4 mph - N/A   Parcialmente nublado
12:00 PM 57 ° F 39 ° F 40% 30.32 pul 19 mi Norte 10.4 mph - -  
12:00 PM 55.4 ° F 37.4 ° F 51% 30.30 pul 6.2 mi NNO 9.2 mph - N/A   Parcialmente nublado
12:30 PM 57.2 ° F 39.2 ° F 51% 30.30 pul 6.2 mi NO 8.1 mph - N/A   Parcialmente nublado
1:00 PM 59 ° F 40 ° F 39% 30.32 pul 19 mi Norte 5.8 mph - -  
1:00 PM 57.2 ° F 39.2 ° F 51% 30.30 pul 6.2 mi ONO 4.6 mph - N/A   Parcialmente nublado
1:30 PM 59.0 ° F 41.0 ° F 51% 30.30 pul 6.2 mi Oeste 2.3 mph - N/A   Parcialmente nublado
2:00 PM 59.0 ° F 39.2 ° F 48% 30.30 pul 6.2 mi SO 2.3 mph - N/A   Parcialmente nublado
2:30 PM 59.0 ° F 41.0 ° F 51% 30.27 pul 6.2 mi Sur 6.9 mph - N/A   Parcialmente nublado
3:00 PM 60 ° F 44 ° F 43% 30.30 pul 13 mi SSO 9.2 mph - -  
3:00 PM 57.2 ° F 41.0 ° F 55% 30.27 pul 6.2 mi Sur 10.4 mph - N/A   Parcialmente nublado
4:00 PM 59 ° F 46 ° F 52% 30.30 pul 19 mi SO 9.2 mph - -   Nubes dispersas
4:00 PM 57.2 ° F 44.6 ° F 63% 30.30 pul 6.2 mi SSO 9.2 mph - N/A   Parcialmente nublado
4:30 PM 57.2 ° F 44.6 ° F 63% 30.30 pul 6.2 mi SSO 10.4 mph - N/A   Parcialmente nublado
5:00 PM 58 ° F 46 ° F 53% 30.31 pul 17 mi SO 10.4 mph - -  
5:00 PM 55.4 ° F 44.6 ° F 67% 30.30 pul 6.2 mi SSO 10.4 mph - N/A   Parcialmente nublado
5:30 PM 55.4 ° F 42.8 ° F 63% 30.30 pul 6.2 mi Sur 8.1 mph - N/A   Parcialmente nublado
6:00 PM 56 ° F 44 ° F 54% 30.33 pul 19 mi SO 8.1 mph - -  
6:00 PM 55.4 ° F 42.8 ° F 63% 30.30 pul 6.2 mi SO 9.2 mph - N/A   Parcialmente nublado
6:30 PM 55.4 ° F 44.6 ° F 67% 30.33 pul 6.2 mi SSO 9.2 mph - N/A   Parcialmente nublado
7:00 PM 54 ° F 44 ° F 60% 30.34 pul 19 mi SO 6.9 mph - -   Nubes dispersas
7:00 PM 53.6 ° F 42.8 ° F 67% 30.33 pul 6.2 mi SSO 6.9 mph - N/A   Parcialmente nublado
7:30 PM 53.6 ° F 44.6 ° F 72% 30.33 pul 6.2 mi SSO 5.8 mph - N/A   Parcialmente nublado
8:00 PM 53.6 ° F 44.6 ° F 72% 30.36 pul - SSO 4.6 mph - N/A   Despejado
8:30 PM 53.6 ° F 44.6 ° F 72% 30.36 pul - Sin viento Sin viento - N/A   Despejado
9:00 PM 53 ° F 46 ° F 69% 30.39 pul 14 mi Este 5.8 mph - -  
9:00 PM 51.8 ° F 42.8 ° F 71% 30.36 pul - Este 3.5 mph - N/A   Despejado
9:30 PM 53.6 ° F 44.6 ° F 72% 30.39 pul - SE 3.5 mph - N/A   Despejado
10:00 PM 53.6 ° F 44.6 ° F 72% 30.39 pul 6.2 mi Variable 2.3 mph - N/A   Parcialmente nublado
10:30 PM 51.8 ° F 42.8 ° F 71% 30.39 pul 6.2 mi Sin viento Sin viento - N/A   Parcialmente nublado
11:00 PM 49 ° F 42 ° F 71% 30.42 pul 13 mi Norte 6.9 mph - -  
11:00 PM 48.2 ° F 42.8 ° F 82% 30.42 pul 6.2 mi NO 3.5 mph - N/A   Parcialmente nublado
11:30 PM 48.2 ° F 41.0 ° F 76% 30.42 pul 6.2 mi NNO 6.9 mph - N/A   Parcialmente nublado